| time (UTC) | temp F | wind direction | speed MPH | gust MPH | rain 1hr in | rain 24hr in | rain mn in | humidity % | barometer mb |
| 20260831014601 | 61 | 229 | 2.0 | 8.0 | 0.00 | 0.00 | 0.00 | 63 | 1025.7 |
| 20260831013048 | 61 | 123 | 3.0 | 9.0 | 0.00 | 0.00 | 0.00 | 64 | 1025.7 |
| 20260831011546 | 61 | 194 | 1.0 | 10.0 | 0.00 | 0.00 | 0.00 | 65 | 1025.9 |
| 20260831010048 | 60 | 151 | 2.0 | 8.0 | 0.00 | 0.00 | 0.00 | 67 | 1026.0 |
| 20260831004541 | 59 | 175 | 4.0 | 8.0 | 0.00 | 0.00 | 0.00 | 67 | 1026.1 |
| 20260831003039 | 59 | 184 | 4.0 | 10.0 | 0.00 | 0.00 | 0.00 | 66 | 1026.1 |
| 20260831001542 | 59 | 161 | 3.0 | 9.0 | 0.00 | 0.00 | 0.00 | 66 | 1026.2 |
| 20260831000033 | 58 | 130 | 3.0 | 9.0 | 0.00 | 0.00 | 0.00 | 67 | 1026.2 |
| 20260830234541 | 57 | 227 | 0.0 | 6.0 | 0.00 | 0.00 | 0.00 | 67 | 1026.2 |
| 20260830233025 | 57 | 167 | 1.0 | 5.0 | 0.00 | 0.00 | 0.00 | 67 | 1026.2 |
| 20260830231522 | 56 | 175 | 2.0 | 8.0 | 0.00 | 0.00 | 0.00 | 68 | 1026.3 |
| 20260830230031 | 55 | 250 | 1.0 | 5.0 | 0.00 | 0.00 | 0.00 | 72 | 1026.4 |
| 20260830224525 | 53 | 288 | 0.0 | 0.0 | 0.00 | 0.00 | 0.00 | 78 | 1026.4 |
| 20260830223017 | 49 | 115 | 0.0 | 0.0 | 0.00 | 0.00 | 0.00 | 83 | 1026.4 |
| 20260830221508 | 46 | 115 | 0.0 | 0.0 | 0.00 | 0.00 | 0.00 | 84 | 1026.4 |
| 20260830220020 | 45 | 83 | 0.0 | 0.0 | 0.00 | 0.00 | 0.00 | 87 | 1026.4 |
| 20260830214505 | 43 | 83 | 0.0 | 0.0 | 0.00 | 0.00 | 0.00 | 87 | 1026.3 |
| 20260830213111 | 40 | 128 | 0.0 | 0.0 | 0.00 | 0.00 | 0.00 | 92 | 1026.0 |
| 20260830211606 | 39 | 129 | 0.0 | 0.0 | 0.00 | 0.00 | 0.00 | 90 | 1026.0 |
| 20260830210054 | 39 | 129 | 0.0 | 0.0 | 0.00 | 0.00 | 0.00 | 89 | 1025.8 |
| 20260830204552 | 39 | 129 | 0.0 | 0.0 | 0.00 | 0.00 | 0.00 | 89 | 1025.8 |
| 20260830203049 | 39 | 129 | 0.0 | 0.0 | 0.00 | 0.00 | 0.00 | 88 | 1025.8 |
| 20260830201607 | 39 | 129 | 0.0 | 0.0 | 0.00 | 0.00 | 0.00 | 87 | 1025.8 |
| 20260830200045 | 40 | 129 | 0.0 | 0.0 | 0.00 | 0.00 | 0.00 | 87 | 1025.7 |
| 20260830194541 | 41 | 129 | 0.0 | 0.0 | 0.00 | 0.00 | 0.00 | 86 | 1025.6 |
| 20260830193042 | 41 | 72 | 0.0 | 0.0 | 0.00 | 0.00 | 0.00 | 84 | 1025.6 |
| 20260830191537 | 43 | 73 | 0.0 | 0.0 | 0.00 | 0.00 | 0.00 | 81 | 1025.4 |
| 20260830190037 | 48 | 75 | 0.0 | 6.0 | 0.00 | 0.00 | 0.00 | 74 | 1025.3 |
| 20260830184535 | 46 | 168 | 1.0 | 4.0 | 0.00 | 0.00 | 0.00 | 79 | 1025.2 |
| 20260830183029 | 44 | 165 | 0.0 | 0.0 | 0.00 | 0.00 | 0.00 | 82 | 1025.2 |
| 20260830181527 | 45 | 165 | 0.0 | 5.0 | 0.00 | 0.00 | 0.00 | 79 | 1025.2 |
| 20260830180025 | 47 | 111 | 1.0 | 4.0 | 0.00 | 0.00 | 0.00 | 76 | 1025.1 |
| 20260830174527 | 45 | 98 | 0.0 | 4.0 | 0.00 | 0.00 | 0.00 | 80 | 1025.1 |
| 20260830173027 | 47 | 51 | 0.0 | 4.0 | 0.00 | 0.00 | 0.00 | 78 | 1025.1 |
| 20260830171518 | 49 | 142 | 0.0 | 5.0 | 0.00 | 0.00 | 0.00 | 75 | 1025.0 |
| 20260830170016 | 48 | 144 | 0.0 | 0.0 | 0.00 | 0.00 | 0.00 | 75 | 1025.0 |
| 20260830164514 | 48 | 190 | 0.0 | 4.0 | 0.00 | 0.00 | 0.00 | 77 | 1025.0 |
| 20260830163012 | 49 | 132 | 0.0 | 8.0 | 0.00 | 0.00 | 0.00 | 77 | 1025.0 |
| 20260830161509 | 49 | 150 | 0.0 | 0.0 | 0.00 | 0.00 | 0.00 | 78 | 1025.4 |
| 20260830160007 | 50 | 207 | 0.0 | 0.0 | 0.00 | 0.00 | 0.00 | 77 | 1025.6 |
| 20260830154506 | 50 | 111 | 0.0 | 0.0 | 0.00 | 0.00 | 0.00 | 77 | 1025.7 |
| 20260830153018 | 50 | 123 | 0.0 | 6.0 | 0.00 | 0.00 | 0.00 | 78 | 1025.6 |
| 20260830151510 | 50 | 173 | 0.0 | 0.0 | 0.00 | 0.00 | 0.00 | 79 | 1025.6 |
| 20260830150002 | 50 | 207 | 0.0 | 4.0 | 0.00 | 0.00 | 0.00 | 78 | 1025.4 |
| 20260830144600 | 51 | 87 | 0.0 | 8.0 | 0.00 | 0.00 | 0.00 | 78 | 1025.3 |
| 20260830143106 | 51 | 142 | 0.0 | 8.0 | 0.00 | 0.00 | 0.00 | 79 | 1025.3 |
| 20260830141556 | 51 | 92 | 0.0 | 9.0 | 0.00 | 0.00 | 0.00 | 79 | 1025.3 |
| 20260830140053 | 51 | 156 | 0.0 | 2.0 | 0.00 | 0.00 | 0.00 | 79 | 1025.3 |
| 20260830134555 | 51 | 236 | 0.0 | 2.0 | 0.00 | 0.00 | 0.00 | 79 | 1025.4 |
| 20260830133052 | 51 | 269 | 0.0 | 5.0 | 0.00 | 0.00 | 0.00 | 79 | 1025.5 |
| 20260830131552 | 51 | 332 | 0.0 | 4.0 | 0.00 | 0.00 | 0.00 | 77 | 1025.5 |
| 20260830130054 | 51 | 330 | 0.0 | 0.0 | 0.00 | 0.00 | 0.00 | 75 | 1025.4 |
| 20260830124558 | 52 | 84 | 1.0 | 4.0 | 0.00 | 0.00 | 0.00 | 73 | 1025.3 |
| 20260830123056 | 52 | 64 | 0.0 | 8.0 | 0.00 | 0.00 | 0.00 | 73 | 1025.3 |
| 20260830121549 | 52 | 146 | 0.0 | 7.0 | 0.00 | 0.00 | 0.00 | 72 | 1025.2 |
| 20260830120053 | 53 | 16 | 0.0 | 4.0 | 0.00 | 0.00 | 0.00 | 71 | 1025.1 |
| 20260830114556 | 53 | 107 | 0.0 | 7.0 | 0.00 | 0.00 | 0.00 | 71 | 1025.1 |
| 20260830113047 | 53 | 329 | 0.0 | 0.0 | 0.00 | 0.00 | 0.00 | 74 | 1025.0 |
| 20260830111547 | 54 | 329 | 0.0 | 2.0 | 0.00 | 0.00 | 0.00 | 73 | 1025.0 |
| 20260830110048 | 54 | 89 | 1.0 | 9.0 | 0.00 | 0.00 | 0.00 | 74 | 1024.9 |
| 20260830104546 | 54 | 171 | 6.0 | 12.0 | 0.00 | 0.00 | 0.00 | 78 | 1024.8 |
| 20260830103045 | 54 | 107 | 0.0 | 8.0 | 0.00 | 0.00 | 0.00 | 78 | 1024.8 |
| 20260830101544 | 55 | 119 | 5.0 | 14.0 | 0.00 | 0.00 | 0.00 | 78 | 1024.6 |
| 20260830100044 | 55 | 137 | 3.0 | 10.0 | 0.00 | 0.00 | 0.00 | 77 | 1024.3 |
| 20260830094604 | 55 | 69 | 4.0 | 12.0 | 0.00 | 0.00 | 0.00 | 76 | 1024.3 |
| 20260830093043 | 56 | 198 | 4.0 | 12.0 | 0.00 | 0.00 | 0.00 | 76 | 1024.4 |
| 20260830091542 | 56 | 137 | 2.0 | 12.0 | 0.00 | 0.00 | 0.00 | 74 | 1024.2 |
| 20260830090047 | 56 | 140 | 4.0 | 15.0 | 0.00 | 0.00 | 0.00 | 74 | 1024.1 |
| 20260830084641 | 56 | 130 | 1.0 | 11.0 | 0.00 | 0.00 | 0.00 | 75 | 1023.9 |
| 20260830083041 | 56 | 136 | 2.0 | 10.0 | 0.00 | 0.00 | 0.00 | 76 | 1023.8 |
| 20260830081540 | 57 | 159 | 0.0 | 9.0 | 0.00 | 0.00 | 0.00 | 77 | 1023.7 |
| 20260830080047 | 57 | 200 | 3.0 | 10.0 | 0.00 | 0.00 | 0.00 | 77 | 1023.5 |
| 20260830074539 | 57 | 103 | 2.0 | 10.0 | 0.00 | 0.00 | 0.00 | 76 | 1023.3 |
| 20260830073038 | 58 | 146 | 2.0 | 11.0 | 0.00 | 0.00 | 0.00 | 76 | 1023.3 |
| 20260830071538 | 58 | 139 | 1.0 | 11.0 | 0.00 | 0.00 | 0.00 | 77 | 1023.3 |
| 20260830070041 | 59 | 109 | 2.0 | 9.0 | 0.00 | 0.00 | 0.00 | 76 | 1023.4 |
| 20260830064543 | 59 | 149 | 3.0 | 11.0 | 0.00 | 0.00 | 0.00 | 75 | 1023.5 |
| 20260830063035 | 60 | 128 | 3.0 | 8.0 | 0.00 | 0.00 | 0.00 | 74 | 1023.5 |
| 20260830061533 | 61 | 72 | 4.0 | 11.0 | 0.00 | 0.00 | 0.00 | 73 | 1023.7 |
| 20260830060035 | 61 | 222 | 4.0 | 10.0 | 0.00 | 0.00 | 0.00 | 73 | 1023.8 |
| 20260830054541 | 61 | 224 | 5.0 | 14.0 | 0.00 | 0.00 | 0.00 | 73 | 1023.8 |
| 20260830053028 | 61 | 159 | 4.0 | 14.0 | 0.00 | 0.00 | 0.00 | 73 | 1023.9 |
| 20260830051528 | 61 | 252 | 6.0 | 12.0 | 0.00 | 0.00 | 0.00 | 73 | 1024.2 |
| 20260830050027 | 62 | 143 | 6.0 | 16.0 | 0.00 | 0.00 | 0.00 | 72 | 1024.2 |
| 20260830044529 | 63 | 163 | 4.0 | 18.0 | 0.00 | 0.00 | 0.00 | 70 | 1024.2 |
| 20260830043025 | 63 | 62 | 4.0 | 16.0 | 0.00 | 0.00 | 0.00 | 70 | 1024.2 |
| 20260830041527 | 63 | 138 | 5.0 | 14.0 | 0.00 | 0.00 | 0.00 | 70 | 1024.3 |
| 20260830040023 | 64 | 78 | 2.0 | 7.0 | 0.00 | 0.00 | 0.00 | 70 | 1024.3 |
| 20260830034521 | 63 | 142 | 5.0 | 10.0 | 0.00 | 0.00 | 0.00 | 70 | 1024.4 |
| 20260830033019 | 62 | 150 | 2.0 | 9.0 | 0.00 | 0.00 | 0.00 | 73 | 1024.7 |
| 20260830031518 | 62 | 104 | 3.0 | 15.0 | 0.00 | 0.00 | 0.00 | 72 | 1024.9 |
| 20260830030027 | 63 | 142 | 3.0 | 9.0 | 0.00 | 0.00 | 0.00 | 70 | 1025.1 |
| 20260830024530 | 62 | 269 | 4.0 | 10.0 | 0.00 | 0.00 | 0.00 | 70 | 1025.3 |
| 20260830023015 | 62 | 157 | 4.0 | 13.0 | 0.00 | 0.00 | 0.00 | 70 | 1025.6 |
| 20260830021522 | 62 | 208 | 4.0 | 10.0 | 0.00 | 0.00 | 0.00 | 70 | 1025.7 |
| 20260830020014 | 61 | 148 | 3.0 | 11.0 | 0.00 | 0.00 | 0.00 | 70 | 1025.8 |